Location: Kergonan
(48.2337°N, 4.5518°W)
Time: 06:12:39
(UTC+00:00)

Cosmos 2082 - Pass Details

Date: 18 January 2020
Orbit: 833 x 856 km, 71.0° (Epoch: 23 February)

Event Time Altitude Azimuth Distance (km) Brightness Sun altitude
Exits shadow 05:48:44 41° 307° (NW) 1,209 4.1 -21.7°
Maximum altitude 05:50:31 61° 248° (WSW) 964 3.7 -21.4°
Drops below altitude 10° 05:56:06 10° 170° (S) 2,474 6.3 -20.5°
Sets 05:58:34 0° 166° (SSE) 3,409 7.2 -20.1°
